Location: Iesi
(43.5167°N, 13.2333°E)
Time: 21:25:50
(UTC+00:00)

X-37B - Pass Details

Date: 03 November 2020
Orbit: 384 x 390 km, 45.0° (Epoch: 26 November)

Event Time Altitude Azimuth Distance (km) Brightness Sun altitude
Exits shadow 04:04:33 19° 190° (S) 1,006 2.6 -18.7°
Maximum altitude 04:05:57 26° 150° (SSE) 808 2.5 -18.4°
Drops below altitude 10° 04:08:40 10° 91° (E) 1,413 4.7 -17.9°
Sets 04:10:56 0° 78° (ENE) 2,269 5.9 -17.5°
